COSMOS 1867 COOLANT

Satellite information

Favourite Embed

Satellite Type and Status

DEBRISIN ORBIT

Key statistics

Satellite COSMOS 1867 COOLANT at a glance.

Uptime

13989

Days in orbit

Revolutions

≈ 14.3

Per day

Orbit

LEO

Low Earth Orbit

Inclination

65.0

Latest

Satellite identification and parameters

Extended collection of information and parameters for COSMOS 1867 COOLANT.

Object identification

Identified? True

Debris? False

Object name: COSMOS 1867 COOLANT

International designator: 1987-060AC

Object number (NORAD): 39665

Object ID (CCSDS): 39665

Country: COMMONWEALTH OF INDEPENDENT STATES (CIS)

Current information (Y/N): Y

RCS size: SMALL

Orbital parameters

Period: 100.447 minutes

Inclination: 65.0057 deg

SMA: 7157.91 km

Apoapsis: 789.522 km

Periapsis: 770.028 km

RAAN: 307.08 deg

Eccentricy: 0.00136177

Argument of periapsis: 263.7457 deg

Mean anomaly: 96.2078 deg

Mean motion: 14.33584872 rev/day

Mean motion (dot): 0.00000465 rev/day2

B* drag term: 0.00020372583 1/REarth

Two-line elements (TLE)

Creation date: Oct. 27, 2025, 2:46 a.m.

Reference frame: TEME

Reference center: EARTH

Epoch: Oct. 26, 2025, 3:24 p.m. UTC

TLE line 0: 0 COSMOS 1867 COOLANT

TLE line 1: 1 39665U 87060AC 25299.64234574 .00000465 00000-0 20373-3 0 9995

TLE line 2: 2 39665 65.0057 307.0800 0013618 263.7457 96.2078 14.33584872593807

Live tracking on map

Real-time ground track for satellite COSMOS 1867 COOLANT.

In-orbit conjunctions

A list of the most updated potential collisions computed for object COSMOS 1867 COOLANT.

Target Orbit TCA Probability of collision Miss distance Type
FENGYUN 1C DEB SSO 2025-10-25 16:26:17 0.0001184322 296.0 (m) DEBRIS
COSMOS 1867 COOLANT LEO 2025-10-21 22:49:31 0.001438676 85.0 (m) DEBRIS
COSMOS 1867 COOLANT LEO 2025-10-21 21:09:04 0.0001522864 519.0 (m) DEBRIS
DMSP 5D-2 F12 DEB SSO 2025-05-15 00:57:22 0.0005625818 46.0 (m) DEBRIS
NOAA 16 DEB SSO 2025-05-01 00:46:47 0.0001204563 106.0 (m) DEBRIS

Associated space launch

Nuclear-powered magnetospheric research satellite

COSMOS 1867 COOLANT was lifted into orbit during the mission ‘Tsiklon-2 | Plasma-A 2’, on board a Tsiklon-2 space rocket.

The launch took place on July 10, 1987, 3:35 p.m. from 90.

For more information about the launch, click the button.

Launch to space Tsiklon-2 | Plasma-A 2
Tsiklon-2 | Plasma-A 2

Agency: N/A

Status: Launch Successful

Launch date: July 10, 1987, 3:35 p.m. UTC

Rocket: Tsiklon-2

Launch pad: 90

Location: Baikonur Cosmodrome, Republic of Kazakhstan

...

Latest news about this satellite

There are no fresh news available about this satellite. Check back as we update our databases every day.


Newsletter sign-up

Weekly statistics, charts and insights to help you stay on top of the space industry.